| time (UTC) | temp C | wind direction | speed KPH | gust KPH | rain 1hr cm | rain 24hr cm | rain mn cm | humidity % | barometer mb |
| 20260506235256 | 13 | 0.0 | 0.0 | 0.00 | 0.00 | 0.00 | 75 | 988.8 | |
| 20260506233252 | 12 | 0.0 | 0.0 | 0.00 | 0.00 | 0.00 | 75 | 988.7 | |
| 20260506231247 | 13 | 0.0 | 0.0 | 0.00 | 0.00 | 0.00 | 75 | 988.6 | |
| 20260506225243 | 12 | 0.0 | 0.0 | 0.00 | 0.00 | 0.00 | 75 | 988.5 | |
| 20260506223238 | 12 | 0.0 | 0.0 | 0.00 | 0.00 | 0.00 | 74 | 988.6 | |
| 20260506221233 | 12 | 0.0 | 0.0 | 0.00 | 0.00 | 0.00 | 76 | 988.6 | |
| 20260506215229 | 12 | 0.0 | 0.0 | 0.00 | 0.00 | 0.00 | 75 | 988.4 | |
| 20260506213224 | 13 | 0.0 | 0.0 | 0.00 | 0.00 | 0.00 | 74 | 988.3 | |
| 20260506211220 | 13 | 0.0 | 0.0 | 0.00 | 0.00 | 0.00 | 74 | 988.5 | |
| 20260506205215 | 13 | 0.0 | 0.0 | 0.00 | 0.00 | 0.00 | 75 | 988.3 | |
| 20260506203211 | 13 | 0.0 | 0.0 | 0.00 | 0.00 | 0.00 | 75 | 988.2 | |
| 20260506201206 | 12 | 0.0 | 0.0 | 0.00 | 0.00 | 0.00 | 79 | 988.2 | |
| 20260506195202 | 12 | 0.0 | 0.0 | 0.00 | 0.00 | 0.00 | 80 | 988.1 | |
| 20260506193157 | 13 | 0.0 | 0.0 | 0.00 | 0.00 | 0.00 | 78 | 988.0 | |
| 20260506191153 | 13 | 0.0 | 0.0 | 0.00 | 0.00 | 0.00 | 77 | 987.4 | |
| 20260506185149 | 13 | 0.0 | 0.0 | 0.00 | 0.00 | 0.00 | 78 | 987.2 | |
| 20260506183145 | 13 | 0.0 | 0.0 | 0.00 | 0.00 | 0.00 | 80 | 986.9 | |
| 20260506181140 | 12 | 0.0 | 0.0 | 0.00 | 0.00 | 0.00 | 82 | 986.6 | |
| 20260506175136 | 13 | 0.0 | 0.0 | 0.00 | 0.00 | 0.00 | 81 | 986.1 | |
| 20260506173132 | 12 | 0.0 | 0.0 | 0.00 | 0.00 | 0.00 | 83 | 986.1 | |
| 20260506172825 | 12 | 0.0 | 0.0 | 0.00 | 0.00 | 0.00 | 83 | 986.1 | |
| 20260506170821 | 12 | 0.0 | 0.0 | 0.00 | 0.00 | 0.00 | 84 | 985.8 | |
| 20260506164816 | 12 | 0.0 | 0.0 | 0.00 | 0.00 | 0.00 | 82 | 985.9 | |
| 20260506162812 | 12 | 0.0 | 0.0 | 0.00 | 0.00 | 0.00 | 77 | 985.2 | |
| 20260506160807 | 14 | 0.0 | 0.0 | 0.00 | 0.00 | 0.00 | 71 | 985.6 | |
| 20260506154803 | 18 | 0.0 | 0.0 | 0.00 | 0.00 | 0.00 | 71 | 984.6 | |
| 20260506152758 | 18 | 0.0 | 0.0 | 0.00 | 0.00 | 0.00 | 69 | 984.2 | |
| 20260506150753 | 20 | 0.0 | 0.0 | 0.00 | 0.00 | 0.00 | 66 | 984.3 | |
| 20260506144749 | 20 | 0.0 | 0.0 | 0.00 | 0.00 | 0.00 | 66 | 984.7 | |
| 20260506142744 | 18 | 0.0 | 0.0 | 0.00 | 0.00 | 0.00 | 71 | 984.8 | |
| 20260506140739 | 20 | 0.0 | 0.0 | 0.00 | 0.00 | 0.00 | 64 | 985.3 | |
| 20260506134734 | 21 | 0.0 | 0.0 | 0.00 | 0.00 | 0.00 | 61 | 985.5 | |
| 20260506132724 | 20 | 0.0 | 0.0 | 0.00 | 0.00 | 0.00 | 65 | 986.0 | |
| 20260506130719 | 19 | 0.0 | 0.0 | 0.00 | 0.00 | 0.00 | 66 | 986.1 | |
| 20260506122710 | 20 | 0.0 | 0.0 | 0.00 | 0.00 | 0.00 | 65 | 986.2 | |
| 20260506120705 | 18 | 0.0 | 0.0 | 0.00 | 0.00 | 0.00 | 68 | 986.3 | |
| 20260506114701 | 19 | 0.0 | 0.0 | 0.00 | 0.00 | 0.00 | 67 | 986.5 | |
| 20260506112656 | 18 | 0.0 | 0.0 | 0.00 | 0.00 | 0.00 | 68 | 986.4 | |
| 20260506110652 | 20 | 0.0 | 0.0 | 0.00 | 0.00 | 0.00 | 68 | 986.4 | |
| 20260506104647 | 18 | 0.0 | 0.0 | 0.00 | 0.00 | 0.00 | 71 | 986.7 | |
| 20260506102642 | 17 | 0.0 | 0.0 | 0.00 | 0.00 | 0.00 | 74 | 986.9 | |
| 20260506100638 | 16 | 0.0 | 0.0 | 0.00 | 0.00 | 0.00 | 77 | 986.9 | |
| 20260506094633 | 17 | 0.0 | 0.0 | 0.00 | 0.00 | 0.00 | 77 | 986.8 | |
| 20260506090624 | 15 | 0.0 | 0.0 | 0.00 | 0.00 | 0.00 | 86 | 986.9 | |
| 20260506084620 | 14 | 0.0 | 0.0 | 0.00 | 0.00 | 0.00 | 87 | 986.4 | |
| 20260506080611 | 15 | 0.0 | 0.0 | 0.00 | 0.00 | 0.00 | 85 | 986.4 | |
| 20260506072601 | 15 | 0.0 | 0.0 | 0.00 | 0.00 | 0.00 | 85 | 986.6 | |
| 20260506070557 | 15 | 0.0 | 0.0 | 0.00 | 0.00 | 0.00 | 88 | 987.0 | |
| 20260506060543 | 14 | 0.0 | 0.0 | 0.00 | 0.00 | 0.00 | 90 | 986.9 | |
| 20260506050529 | 13 | 0.0 | 0.0 | 0.00 | 0.00 | 0.00 | 91 | 987.4 | |
| 20260506044525 | 13 | 0.0 | 0.0 | 0.00 | 0.00 | 0.00 | 91 | 987.2 | |
| 20260506042520 | 13 | 0.0 | 0.0 | 0.00 | 0.00 | 0.00 | 91 | 987.4 | |
| 20260506034511 | 13 | 0.0 | 0.0 | 0.00 | 0.00 | 0.00 | 90 | 987.3 | |
| 20260506032506 | 13 | 0.0 | 0.0 | 0.00 | 0.00 | 0.00 | 90 | 987.4 | |
| 20260506030501 | 13 | 0.0 | 0.0 | 0.00 | 0.00 | 0.00 | 89 | 987.6 | |
| 20260506022452 | 14 | 0.0 | 0.0 | 0.00 | 0.00 | 0.00 | 88 | 988.2 | |
| 20260506020448 | 13 | 0.0 | 0.0 | 0.00 | 0.00 | 0.00 | 88 | 988.3 | |
| 20260506014443 | 14 | 0.0 | 0.0 | 0.00 | 0.00 | 0.00 | 88 | 988.3 | |
| 20260506012438 | 14 | 0.0 | 0.0 | 0.00 | 0.00 | 0.00 | 88 | 988.4 | |
| 20260506010434 | 14 | 0.0 | 0.0 | 0.00 | 0.00 | 0.00 | 88 | 988.5 | |
| 20260506004429 | 14 | 0.0 | 0.0 | 0.00 | 0.00 | 0.00 | 88 | 988.7 | |
| 20260506002425 | 14 | 0.0 | 0.0 | 0.00 | 0.00 | 0.00 | 88 | 988.9 | |
| 20260506000420 | 14 | 0.0 | 0.0 | 0.00 | 0.00 | 0.00 | 88 | 989.2 |